This is the latest recevied weather packets stored in our database for station/object SQ9RHX-13. If no packets are shown the sender has not sent any weather packets the latest 10 day(s).
| Time | Temp. | Humidity | Pressure | Rain* | Wind** | Luminosity | Snow |
|---|---|---|---|---|---|---|---|
| 1777019704 | 10.56° C | 72% | 1021.6 hPa | 0 mm | - | 183 W/m² | - |
| 1777019404 | 11.11° C | 72% | 1021.5 hPa | 0 mm | - | 173 W/m² | - |
| 1777019103 | 10.56° C | 74% | 1021.5 hPa | 0 mm | - | 217 W/m² | - |
| 1777018804 | 10.56° C | 73% | 1021.4 hPa | 0 mm | - | 301 W/m² | - |
| 1777018506 | 10.56° C | 73% | 1021.4 hPa | 0 mm | - | 225 W/m² | - |
| 1777018204 | 10.56° C | 73% | 1021.5 hPa | 0 mm | - | 228 W/m² | - |
| 1777017904 | 10.56° C | 73% | 1021.4 hPa | 0 mm | - | 239 W/m² | - |
| 1777017605 | 10.56° C | 73% | 1021.3 hPa | 0 mm | - | 229 W/m² | - |
| 1777017304 | 10.56° C | 74% | 1021.3 hPa | 0 mm | - | 248 W/m² | - |
| 1777017003 | 10.56° C | 73% | 1021.3 hPa | 0 mm | - | 265 W/m² | - |
| 1777016703 | 11.11° C | 71% | 1021.3 hPa | 0 mm | - | 230 W/m² | - |
| 1777016405 | 11.67° C | 71% | 1021.1 hPa | 0 mm | - | 267 W/m² | - |
| 1777016103 | 11.67° C | 71% | 1021.2 hPa | 0 mm | - | 277 W/m² | - |
| 1777015803 | 11.11° C | 72% | 1021.2 hPa | 0 mm | - | 432 W/m² | - |
| 1777015504 | 11.67° C | 71% | 1021.2 hPa | 0 mm | - | 182 W/m² | - |
| 1777015203 | 11.67° C | 71% | 1021 hPa | 0 mm | - | 315 W/m² | - |
| 1777014903 | 11.67° C | 72% | 1021.1 hPa | 0 mm | - | 287 W/m² | - |
| 1777014604 | 11.11° C | 73% | 1021 hPa | 0 mm | - | 229 W/m² | - |
| 1777014304 | 10.56° C | 74% | 1021.1 hPa | 0 mm | - | 198 W/m² | - |
| 1777014004 | 10.56° C | 73% | 1021 hPa | 0 mm | - | 135 W/m² | - |
| 1777013703 | 10.56° C | 73% | 1021.2 hPa | 0 mm | - | 171 W/m² | - |
| 1777013403 | 10.56° C | 73% | 1020.8 hPa | 0 mm | - | 168 W/m² | - |
| 1777013105 | 10.56° C | 74% | 1021.2 hPa | 0 mm | - | 167 W/m² | - |
| 1777012802 | 10.56° C | 73% | 1021.2 hPa | 0 mm | - | 168 W/m² | - |
| 1777012503 | 10.56° C | 72% | 1021.1 hPa | 0 mm | - | 172 W/m² | - |
* Rain latest hour (hover to see other rain measurements)
** Current wind speed in m/s (hover to see current wind gust speed)